{"data":{"norad_id":58031,"epoch":"2026-05-25T03:17:56.854176Z","epoch_age_seconds":63370,"freshness":"FRESH","line1":"1 58031U 23156D   26145.13746359  .00000878  00000+0  37129-4 0  9998","line2":"2 58031  53.1619  92.7040 0001259  93.7340 266.3807 15.34393741147878","mean_motion":15.34393741,"eccentricity":0.0001259,"inclination_deg":53.1619,"raan_deg":92.704,"arg_perigee_deg":93.734,"mean_anomaly_deg":266.3807,"bstar":3.7129e-5,"rev_number":14787,"period_min":93.848140899058,"perigee_km":461.86057920899,"apogee_km":463.58310746574,"semimajor_km":6840.8588433374,"source":"CELESTRAK","updated_at":"2026-05-25T13:38:18.494705Z"}}